Weather History for KSDB - October, 2012

Change the Weather History Date:

Tuesday, October 9, 2012

  Actual Average Record
Temperature  
Mean Temperature 57 °F 62 °F  
Max Temperature 66 °F 70 °F 87 °F (1996)
Min Temperature 48 °F 53 °F 36 °F (1960)
Degree Days  
Heating Degree Days 8 6  
Month to date heating degree days 21 44  
Since 1 July heating degree days 26 122  
Cooling Degree Days 0 2  
Month to date cooling degree days 44 26  
Year to date cooling degree days 1325 972  
Growing Degree Days 4 (Base 50)    
Moisture  
Dew Point 45 °F    
Average Humidity 70    
Maximum Humidity 100    
Minimum Humidity 40    
Precipitation  
Precipitation 0.00 in 0.02 in 0.20 in (2013)
Month to date precipitation 0.00 0.12  
Year to date precipitation 4.34 8.82  
Since 1 July precipitation 0.07 0.34  
Sea Level Pressure  
Sea Level Pressure 29.98 in    
Wind  
Wind Speed 12 mph (SW)    
Max Wind Speed 22 mph    
Max Gust Speed 26 mph    
Visibility 8 miles    
Events Fog    
T = Trace of Precipitation, MM = Missing Value Source: NWS Daily Summary

Daily Weather History Graph

Daily Weather History Graph

Search for Another Location

Airport or City:

Trip Planner

Search our weather history database for the weather conditions in past years. The results will help you decide how hot, cold, wet, or windy it might be!

Date:

Astronomy

Oct. 09, 2012 Rise Set
Actual Time 6:56 AM PDT 6:27 PM PDT
Civil Twilight 6:30 AM PDT 6:52 PM PDT
Nautical Twilight 6:01 AM PDT 7:21 PM PDT
Astronomical Twilight 5:32 AM PDT 7:50 PM PDT
Moon 12:51 AM PDT (10/9) 2:44 PM PDT (10/9)
Length of Visible Light 12h 21m
Length of Day
11h 30m
Waning Crescent, 35% of the Moon is Illuminated
Oct 9
Waning Crescent
Oct 15
New
Oct 21
First Quarter
Oct 29
Full
Nov 6
Last Quarter

Hourly Weather History & Observations

Time (PDT) Temp. Dew Point Humidity Pressure Visibility Wind Dir Wind Speed Gust Speed Precip Events Conditions
12:48 AM 52.0 °F 45.0 °F 77% 29.95 in 10.0 mi NNW 12.7 mph - N/A   Clear
1:48 AM 51.1 °F 45.0 °F 80% 29.95 in 10.0 mi NNW 18.4 mph - N/A   Clear
2:48 AM 50.0 °F 45.0 °F 83% 29.94 in 10.0 mi NNW 16.1 mph - N/A   Clear
3:48 AM 48.9 °F 44.1 °F 83% 29.94 in 10.0 mi NNW 17.3 mph - N/A   Clear
4:48 AM 48.0 °F 43.0 °F 83% 29.94 in 10.0 mi NNW 17.3 mph - N/A   Clear
5:48 AM 48.9 °F 42.1 °F 77% 29.94 in 10.0 mi NNW 19.6 mph - N/A   Clear
6:48 AM 48.9 °F 41.0 °F 74% 29.96 in 10.0 mi NW 13.8 mph - N/A   Clear
7:48 AM 50.0 °F 39.9 °F 68% 29.97 in 10.0 mi NNW 10.4 mph - N/A   Clear
8:48 AM 54.0 °F 39.9 °F 59% 29.97 in 10.0 mi NNW 9.2 mph - N/A   Clear
9:48 AM 57.9 °F 39.9 °F 51% 29.97 in 10.0 mi WNW 3.5 mph - N/A   Clear
10:48 AM 60.8 °F 39.2 °F 45% 30.07 in 10.0 mi Variable 5.8 mph - N/A   Clear
11:48 AM 64.0 °F 39.9 °F 41% 29.94 in 10.0 mi South 10.4 mph - N/A   Clear
12:48 PM 63.0 °F 46.0 °F 54% 29.94 in 10.0 mi SSE 10.4 mph 20.7 mph N/A   Partly Cloudy
1:21 PM - - N/A% - - North - - N/A   Unknown
1:29 PM 60.8 °F 46.4 °F 59% 30.03 in 10.0 mi South 13.8 mph 20.7 mph N/A   Scattered Clouds
1:48 PM 64.9 °F 46.9 °F 52% 29.92 in 10.0 mi South 15.0 mph 20.7 mph N/A   Partly Cloudy
2:48 PM 64.0 °F 46.0 °F 52% 29.92 in 10.0 mi South 16.1 mph 21.9 mph N/A   Partly Cloudy
3:48 PM 62.1 °F 46.0 °F 56% 29.92 in 10.0 mi South 12.7 mph 20.7 mph N/A   Mostly Cloudy
4:48 PM 59.0 °F 45.0 °F 60% 29.93 in 10.0 mi SSW 12.7 mph - N/A   Overcast
5:48 PM 57.0 °F 43.0 °F 59% 29.93 in 10.0 mi South 12.7 mph 20.7 mph N/A   Mostly Cloudy
6:48 PM 54.0 °F 48.0 °F 80% 29.94 in 10.0 mi SSW 8.1 mph 20.7 mph N/A   Mostly Cloudy
7:48 PM 52.0 °F 48.0 °F 86% 29.95 in 10.0 mi SSW 8.1 mph - N/A   Clear
8:48 PM 52.0 °F 46.0 °F 80% 29.95 in 10.0 mi South 10.4 mph - N/A   Partly Cloudy
9:17 PM 50.0 °F 46.4 °F 87% 30.05 in 10.0 mi SSW 6.9 mph - N/A   Mostly Cloudy
9:38 PM 50.0 °F 46.4 °F 87% 30.04 in 10.0 mi SSW 8.1 mph - N/A   Mostly Cloudy
9:48 PM 50.0 °F 46.0 °F 86% 29.95 in 10.0 mi South 9.2 mph - N/A   Scattered Clouds
10:48 PM 51.1 °F 46.9 °F 86% 29.95 in 10.0 mi South 6.9 mph - N/A   Scattered Clouds
11:00 PM 48.2 °F 46.4 °F 93% 30.04 in 8.0 mi SSW 6.9 mph - N/A   Mostly Cloudy
11:05 PM 48.2 °F 46.4 °F 93% 30.04 in 4.0 mi SSW 6.9 mph - N/A   Mostly Cloudy
11:09 PM 48.2 °F 46.4 °F 93% 30.04 in 1.8 mi SSW 8.1 mph - N/A   Mostly Cloudy
11:12 PM 48.2 °F 46.4 °F 93% 30.04 in 0.8 mi SSW 6.9 mph - N/A   Mostly Cloudy
11:25 PM 48.2 °F 48.2 °F 100% 30.03 in 1.8 mi SSW 9.2 mph - N/A   Overcast
11:29 PM 48.2 °F 48.2 °F 100% 30.03 in 2.5 mi SSW 9.2 mph - N/A   Overcast
11:38 PM 48.2 °F 48.2 °F 100% 30.03 in 1.2 mi South 9.2 mph - N/A   Overcast
11:43 PM 50.0 °F 48.2 °F 94% 30.03 in 0.5 mi South 8.1 mph - N/A Fog Fog
11:48 PM 48.9 °F 48.0 °F 97% 29.93 in 0.5 mi SSW 6.9 mph - N/A Fog Fog
11:54 PM 48.2 °F 48.2 °F 100% 30.03 in 0.2 mi SSW 8.1 mph - N/A Fog Fog